Location: Mohawk View
(42.7837°N, 73.7885°W)
Time: 02:09:53
(UTC+00:00)

Cosmos 1869 - Pass Details

Date: 17 June 2021
Orbit: 518 x 563 km, 82.5° (Epoch: 02 August)

Event Time Altitude Azimuth Distance (km) Brightness Sun altitude
Rises 06:24:19 0° 343° (NNW) 2,765 7.7 -20.8°
Reaches altitude 10° 06:26:38 10° 334° (NNW) 1,863 6.6 -20.6°
Maximum altitude 06:30:22 35° 269° (W) 920 4.2 -20.4°
Enters shadow 06:30:25 35° 267° (W) 920 4.2 -20.4°
